Location: Gouy
(50.0008°N, 3.2556°E)
Time: 04:00:27
(UTC+00:00)

Cosmos 2251 Rocket - Pass Details

Date: 23 May 2024
Orbit: 762 x 790 km, 74.0° (Epoch: 21 June)

Event Time Altitude Azimuth Distance (km) Brightness Sun altitude
Exits shadow 00:44:28 28° 227° (SW) 1,423 4.4 -18.1°
Maximum altitude 00:47:10 60° 298° (WNW) 881 3.8 -18.0°
Drops below altitude 10° 00:52:24 10° 18° (NNE) 2,331 7.3 -17.7°
Sets 00:54:51 0° 23° (NNE) 3,267 8.5 -17.6°
